Back to catalog

COSMOS 970 DEB

AliveLEO
NORAD 14442·DEBRIS·🇷🇺 Russia

Launched Dec 21, 1977 from Baikonur Cosmodrome

Loading…

Next Passes (next 24 hours)

TLE

FreshSource: Space-Track

Epoch: Sep 14, 2026, 09:22 UTC

1 14442U 77121BE  26257.39076093  .00001647  00000-0  14950-2 0  9991
2 14442  65.3661 232.0327 0019733 285.4694 237.6849 13.86270906414172

Track COSMOS 970 DEB in real time with AllMySat

Download on the App Store